sat.trackr.live / text

‹ back to catalog

STARLINK-4311

NORAD 53062 · 2022-077V

PAYLOAD ACTIVE UNKNOWN

§ Identity

Operator
Country
US
Launch date
2022-07-11
Launch site
AFWTR
Launch vehicle
Mass (kg)
RCS (m²)

Purposes: comms

External: N2YO · Heavens-Above · Gunter

§ Orbital elements

Epoch: 2026-09-19T22:24:46.571040Z

Period
93.91 min
Inclination
97.2842°
Eccentricity
0.0001199
Mean motion
15.33436062 rev/d
Perigee alt
464.7 km
Apogee alt
466.4 km
Semi-major
6,843.7 km
B*
-6.3271e-6
RAAN
77.7466°
Arg perigee
73.6992°
Mean anomaly
286.4382°
Rev number
23,020

§ Raw data

STARLINK-43111 53062U 22077V   26262.93387235 -.00000279  00000+0 -63271-5 0  99952 53062  97.2842  77.7466 0001199  73.6992 286.4382 15.33436062230206

JSON: /api/v1/satellites/53062 · /tle

For live sub-satellite position, see the globe view (requires WebGL).

§ Visibility from observer

Set your observer location to see the next 7 days of passes ≥ 10°. The values pass through the URL so the page stays shareable.

No JS? Fill the form by hand. The geolocation button needs JavaScript.